Погода Баево

Погода Баево : погода сейчас, прогноз погоды и архив. Всё, что Вы хотите узнать о погоде Баево!

Поиск расширенной информации на нашем сайте:

Полезная информация: Купить серебряные украшения в 1030 тут

Другие новости

Новости СМИ2

Главная страница сайта

Новости сайта

03.07.2017

Напоминаем, что на нашем специализированном сайте Метеоцентр.Азия вы можете получить высокодетализированные автоматические прогнозы погоды по пунктам России, СНГ и мира в авиационном формате (включающие направление и скорость ветра, видимость, явления погоды, количество и форму облачности, нижнюю и верхнюю границу облачности).

Рекомендуем: Расшифровка маркировки сварочных электродов arkgou.ru.

Погода Баево - сегодня

Время (UTC), дата Ветер
(°,м/с) 
Видим.   Явления Облачность Т
(°С)
Тd
(°С)
f(%) Тe
(°С)
Pmin
(гПа)
dP
(гПа)
Po
(мм)
O2
(г/м3)
Тmin Tmax R s Состояние
почвы
03 20.10.17 220 (ЮЗ) 6-11{11}  10 км  в посл. час ливневой дождь  10/10 600 м кучево-дожд. 
[Cb cap]
+5.3 +3.9 91 +3  1010.4  3.3  747  294  +4.8         
06 20.10.17 210 (ЮЗ) 6-11{11}  10 км  в посл. час ливневой дождь  10/10 600 м кучево-дожд. 
[Cb cap]
+6.9 +4.4 84 +5  1011.9  1.6  748  293           
09 20.10.17 190 (Ю) 6-10{12}  10 км  слаб. ливневой дождь  10/10 600 м кучево-дожд. 
[Cb cap]
+7.8 +4.4 79 +6  1010.8  -1  747  292           
12 20.10.17 190 (Ю) 7-11{13}  10 км  в посл. час ливневой дождь  10/10 600 м кучево-дожд. 
[Cb cap]
+9 +6.3 83 +7  1009.9  -0.8  746  290    +9  0.5     
15 20.10.17 240 (ЮЗ) 7-12{15}  4000 м  ливневой дождь  10/10 600 м кучево-дожд. 
[Cb cap]
+9 +7.6 91 +7  1010.5  0.5  747  290           
18 20.10.17 210 (ЮЗ) 3{12}  10 км  {ливн. осадки}  5/5 1000 м кучево-дожд. 
[Cb cap]
+6.6 +5.4 92 +6  1012.3  1.7  748  293           
21 20.10.17 220 (ЮЗ) 4{10}  10 км    8/8 1000 м 
[Sc]
+7 +5.5 90 +6  1012.3  748  293           
00 21.10.17 240 (ЮЗ) 10 км  слаб. ливневой дождь  10/10 600 м кучево-дожд. 
[Cb cap]
+7.4 +5.8 90 +7  1011.4  -0.8  747  292  +6.2       
03 21.10.17 220 (ЮЗ) 10 км  слаб. ливневой дождь  10/10 600 м кучево-дожд. 
[Cb cap]
+7.2 +6 92 +5  1011.1  -0.4  747  292           
06 21.10.17 240 (ЮЗ) 10 км  слаб. ливневой дождь  10/10 600 м кучево-дожд. 
[Cb cap]
+6.9 +5.6 91 +6  1011  747  293           
09 21.10.17 210 (ЮЗ) 10 км  слаб. ливневой дождь  10/10 600 м кучево-дожд. 
[Cb cap]
+7.4 +6.4 93 +7  1010.4  -0.6  747  292           
12 21.10.17 200 (Ю) 10 км  в посл. час ливневой дождь  10/10 600 м кучево-дожд. 
[Cb cap]
+7.4 +6.3 93 +7  1010.6  0.2  747  292    +7.6  14     
15 21.10.17 200 (Ю) 10 км  слаб. ливневой дождь  10/10 600 м кучево-дожд. 
[Cb cap]
+7 +5.9 93 +6  1010.9  0.3  747  293           
18 21.10.17 230 (ЮЗ) 10 км  {ливн. осадки}  10/10 600 м кучево-дожд. 
[Cb cap]
+6.6 +5.6 93 +6  1010.9  -0.1  747  293           
21 21.10.17 210 (ЮЗ) 10 км  слаб. ливневой дождь  10/10 600 м кучево-дожд. 
[Cb cap]
+6.3 +5.4 94 +6  1010.5  -0.4  747  293           
00 22.10.17 210 (ЮЗ) 10 км  {ливн. осадки}  10/10 600 м кучево-дожд. 
[Cb cap]
+5.8 +4.9 94 +6  1010.1  -0.4  746  294  +5.8       
03 22.10.17 280 (З) 10 км    10/8 600 м кучево-дожд., верхняя 
[Cb cap|Cc]
+5.4 +4.5 94 +5  1011.4  1.3  747  295  +5.4         
06 22.10.17 220 (ЮЗ) 20000 м    8/4 1000 м средняя, верхняя 
[Cu Sc|Ac trans|Cs]
+7 +3.7 79 +7  1012.1  0.7  748  293           
09 22.10.17 250 (З) 6{11}  10 км  в посл. час ливневой дождь  10/10 600 м кучево-дожд. 
[Cb cap]
+6.8 +0.7 65 +5  1012.4  0.3  748  294           
12 22.10.17 310 (СЗ) 3{11}  10 км  {ливн. осадки}  10/4 600 м кучево-дожд., средняя 
[Cb cap|Ac trans]
+2.4 -1.4 76 +1  1015.9  3.2  751  300    +8.5  0.0     
15 22.10.17 270 (З) 10 км    10/10 600 м кучево-дожд. 
[Cb cap]
+2.1 -2 74 1019.3  3.4  753  301           
18 22.10.17 230 (ЮЗ) 10 км    5/5 1000 м 
[Sc]
-2 -4.6 82 -3  1022.5  2.9  755  307           
21 22.10.17 230 (ЮЗ) 10 км    ясно 
-4.1 -5.3 91 -5  1024.8  2.1  757  310           
00 23.10.17 230 (ЮЗ) 10 км    ясно 
-5.3 -6.3 93 -7  1026.2  1.3  758  312  -5.4         
03 23.10.17 200 (Ю) 20000 м    3/0 верхняя 
[Ci fib]
-2.3 -4.2 87 -2  1027.2  1.2  759  309  -5.8         
Время (UTC), дата Ветер
(°,м/с) 
Видим.   Явления Облачность Т
(°С)
Тd
(°С)
f(%) Тe
(°С)
Pmin
(гПа)
dP
(гПа)
Po
(мм)
O2
(г/м3)
Тmin Tmax R s Состояние
почвы

Для получения пояснительной информации подведите курсор к названию столбца.

ПОГОДА Баево - архив

Всё, что Вы хотите узнать о погоде Баево - удобно и подробно!

Выберите нужную дату (начиная с 1 января 2015* года) и нажмите кнопку "Найти".
Будут отображены архивные сводки погоды по пункту Баево, начиная с указанной даты.


Отображать данные в формате CSV (для использования в таблицах Excel)


Внимание! Наш архив погоды предназначен исключительно для личного некоммерческого использования в познавательных целях. Если Вам необходимы официальные справки о состоянии погоды (для производственных, юридических, коммерческих и т.п. целей), обращайтесь в органы Росгидромета.

*Примечание: данная дата относится к архиву по метеостанциям СССР (Россия, СНГ, Балтия).
Архив по метеостанциям Зарубежной Европы и Азии (кроме Китая) хранится 10 дней, по другим регионам земного шара (Китай, Африка, Америка, Австралия, Океания) - 1 день.

Баево - район местоположения метеостанции


Название, широта, долгота, высота метеостанции:
Баево 53.3°ш. 80.8°д. 122 м над ур. моря [Российская Федерация]

Дополнительная информация

В oтличие oт бoльшинства пoгoдных сайтoв мы публикуем пoдрoбную метеoинфoрмацию в детальнoм прoфессиoнальнoм фoрмате.

Характеристики температуры и влажнoсти вoздуха измеряются на высoте 2 м в тени вдали oт зданий и деревьев.
Скoрoсть ветра измеряется на высoте 10 м (на урoвне рoста челoвека скoрoсть ветра ниже в 1.5-2 раза). Если метеoстанция нахoдится в гoрoде или в лесу, тo скoрoсть ветра занижена на 2-4 м/с пo сравнению с oткрытым местoм. Скoрoсть ветра над акватoриями крупных рек и oзёр, а также на вершинах хoлмoв на 2-5 м/с выше, чем в oбычных услoвиях.
Атмoсфернoе давление в разных тoчках местнoсти мoжет значительнo oтличаться oт давления на метеoстанции, в зависимoсти oт услoвий рельефа (при пoдъёме на 10 м давление пoнижается примернo на 1 мм рт.ст.).